リニア-ニート彗星

193P/LINEAR-NEAT (2021)

English version
Home page
Updated on May 13, 2024

---------------------------------------------------------------------

・ プロフィール

・ 写真集

・ 軌道要素

Epoch 2023 Feb. 25.0 TT = JDT 2460000.5
T 2021 Aug. 25.16640 TT                                 Rudenko
q   2.1688713            (2000.0)            P               Q
n   0.14569900     Peri.    8.10529     +0.95670844     +0.28044105
a   3.5768304      Node   335.17733     -0.27635268     +0.79136923
e   0.3936332      Incl.   10.68785     -0.09131355     +0.54321962
P   6.76
>From 910 observations 2001 Aug. 17-2022 Dec. 14, mean residual 0".7.
     Nongravitational parameters A1 = +0.52, A2 = -0.1426.

・ 星図

・ 光度変化

        m1 = 4.0 + 5 logΔ + 35.0 log r(t - 15)

---------------------------------------------------------------------

軌道要素はM.P.E.C. 2022-Y15に掲載されたものです。
星図はステラナビゲータ Ver.10 (アストロアーツ) で作成したものです。
光度グラフはComet for Windowsで作成したものです。

---------------------------------------------------------------------

Copyright(C) Seiichi Yoshida (comet@aerith.net). All rights reserved.